AA1FF Weather Reports


Display with metric or nautical units.
time (UTC)temp
F
wind
direction
speed
MPH
gust
MPH
rain 1hr
in
rain 24hr
in
rain mn
in
humidity
%
barometer
mb
20260504221843 65 89 3.0 4.0 0.00 0.00 0.00 44 1009.0
20260504221345 65 97 3.0 6.0 0.00 0.00 0.00 43 1009.0
20260504220846 65 173 3.0 5.0 0.00 0.00 0.00 43 1009.0
20260504220343 66 198 6.0 10.0 0.00 0.00 0.00 42 1009.0
20260504215844 66 102 4.0 6.0 0.00 0.00 0.00 42 1009.0
20260504215345 67 197 4.0 7.0 0.00 0.00 0.00 40 1009.0
20260504214844 67 166 5.0 11.0 0.00 0.00 0.00 41 1009.0
20260504214343 67 196 4.0 7.0 0.00 0.00 0.00 41 1009.0
20260504213844 67 191 8.0 12.0 0.00 0.00 0.00 40 1009.0
20260504213345 67 216 5.0 7.0 0.00 0.00 0.00 40 1009.0
20260504212844 67 126 4.0 9.0 0.00 0.00 0.00 40 1009.0
20260504212345 67 126 7.0 10.0 0.00 0.00 0.00 40 1008.0
20260504211845 67 150 6.0 9.0 0.00 0.00 0.00 39 1008.0
20260504211347 67 162 3.0 5.0 0.00 0.00 0.00 39 1008.0
20260504210846 68 133 4.0 5.0 0.00 0.00 0.00 39 1008.0
20260504210345 68 197 5.0 7.0 0.00 0.00 0.00 39 1008.0
20260504205843 68 91 3.0 4.0 0.00 0.00 0.00 38 1008.0
20260504205344 68 133 5.0 11.0 0.00 0.00 0.00 38 1008.0
20260504204843 68 206 6.0 13.0 0.00 0.00 0.00 36 1008.0
20260504204345 68 211 10.0 15.0 0.00 0.00 0.00 37 1008.0
20260504203843 68 185 6.0 9.0 0.00 0.00 0.00 36 1008.0
20260504203344 69 205 6.0 10.0 0.00 0.00 0.00 35 1008.0
20260504202843 68 140 2.0 4.0 0.00 0.00 0.00 35 1008.0
20260504202347 68 184 4.0 7.0 0.00 0.00 0.00 34 1008.0
20260504201844 69 183 7.0 10.0 0.00 0.00 0.00 33 1008.0
20260504201344 69 163 4.0 8.0 0.00 0.00 0.00 33 1008.0
20260504200844 69 159 6.0 11.0 0.00 0.00 0.00 32 1008.0
20260504200345 69 211 6.0 9.0 0.00 0.00 0.00 34 1008.0
20260504195844 69 191 3.0 6.0 0.00 0.00 0.00 33 1008.0
20260504195344 68 210 6.0 14.0 0.00 0.00 0.00 34 1008.0
20260504194845 68 222 7.0 9.0 0.00 0.00 0.00 33 1008.0
20260504194346 69 166 5.0 9.0 0.00 0.00 0.00 33 1008.0
20260504193843 69 202 4.0 7.0 0.00 0.00 0.00 33 1008.0
20260504193346 69 152 6.0 13.0 0.00 0.00 0.00 33 1008.0
20260504192845 69 96 2.0 3.0 0.00 0.00 0.00 32 1008.0
20260504192345 69 202 7.0 11.0 0.00 0.00 0.00 31 1008.0
20260504191846 68 285 4.0 8.0 0.00 0.00 0.00 33 1008.0
20260504191344 69 224 7.0 10.0 0.00 0.00 0.00 32 1008.0
20260504190843 69 190 6.0 11.0 0.00 0.00 0.00 32 1008.0
20260504190343 69 158 6.0 9.0 0.00 0.00 0.00 32 1008.0
20260504185843 69 129 5.0 7.0 0.00 0.00 0.00 31 1008.0
20260504185347 68 169 3.0 5.0 0.00 0.00 0.00 34 1008.0
20260504184844 68 226 6.0 10.0 0.00 0.00 0.00 32 1009.0
20260504184347 69 250 8.0 11.0 0.00 0.00 0.00 32 1008.0
20260504183845 68 191 6.0 19.0 0.00 0.00 0.00 32 1008.0
20260504183345 68 257 4.0 7.0 0.00 0.00 0.00 31 1009.0
20260504182844 68 214 5.0 9.0 0.00 0.00 0.00 32 1009.0
20260504182346 68 210 7.0 12.0 0.00 0.00 0.00 32 1009.0
20260504181847 68 182 6.0 10.0 0.00 0.00 0.00 31 1009.0
20260504181346 68 191 11.0 13.0 0.00 0.00 0.00 31 1009.0
20260504180847 68 141 4.0 6.0 0.00 0.00 0.00 31 1009.0
20260504180346 68 200 6.0 9.0 0.00 0.00 0.00 31 1009.0
20260504175846 67 218 4.0 7.0 0.00 0.00 0.00 35 1009.0
20260504175348 67 227 9.0 15.0 0.00 0.00 0.00 32 1009.0
20260504174845 67 201 2.0 4.0 0.00 0.00 0.00 32 1009.0
20260504174351 67 225 6.0 11.0 0.00 0.00 0.00 31 1009.0
20260504173845 67 213 3.0 5.0 0.00 0.00 0.00 33 1009.0
20260504173347 66 238 9.0 14.0 0.00 0.00 0.00 33 1009.0
20260504172846 66 231 6.0 8.0 0.00 0.00 0.00 31 1009.0
20260504172343 67 153 7.0 12.0 0.00 0.00 0.00 31 1009.0
20260504171847 66 177 5.0 8.0 0.00 0.00 0.00 32 1009.0
20260504171346 66 205 6.0 9.0 0.00 0.00 0.00 32 1009.0
20260504170848 66 194 5.0 9.0 0.00 0.00 0.00 31 1009.0
20260504170344 66 239 8.0 11.0 0.00 0.00 0.00 31 1009.0
20260504160346 65 229 4.0 12.0 0.00 0.00 0.00 34 1010.0
20260504150846 63 202 8.0 13.0 0.00 0.00 0.00 35 1010.0
20260504150346 63 246 4.0 6.0 0.00 0.00 0.00 36 1010.0
20260504140845 61 198 9.0 13.0 0.00 0.00 0.00 38 1011.0
20260504140345 61 199 3.0 5.0 0.00 0.00 0.00 39 1011.0
20260504130350 57 253 3.0 5.0 0.00 0.00 0.00 45 1011.0
20260504110345 39 248 2.0 2.0 0.00 0.00 0.00 77 1012.0
20260504100346 35 0 0.0 0.0 0.00 0.00 0.00 86 1012.0
20260504081845 37 0 0.0 0.0 0.00 0.00 0.00 82 1011.0
20260504081346 37 243 1.0 1.0 0.00 0.00 0.00 81 1011.0
20260504080846 37 250 1.0 2.0 0.00 0.00 0.00 80 1011.0
20260504080344 38 0 0.0 0.0 0.00 0.00 0.00 78 1011.0
20260504070344 37 0 0.0 0.0 0.00 0.00 0.00 81 1011.0
20260504050345 35 297 1.0 2.0 0.00 0.00 0.00 85 1011.0
20260504045844 35 273 1.0 1.0 0.00 0.00 0.00 85 1011.0
20260504045343 35 0 0.0 0.0 0.00 0.00 0.00 85 1011.0
20260504044843 35 0 0.0 0.0 0.00 0.00 0.00 85 1011.0
20260504044343 35 286 1.0 2.0 0.00 0.00 0.00 83 1011.0
20260504043844 35 0 0.0 0.0 0.00 0.00 0.00 83 1011.0
20260504043344 35 0 0.0 0.0 0.00 0.00 0.00 83 1011.0
20260504042845 35 0 0.0 0.0 0.00 0.00 0.00 85 1011.0
20260504042343 35 0 0.0 0.0 0.00 0.00 0.00 86 1011.0
20260504041846 35 256 0.0 1.0 0.00 0.00 0.00 85 1011.0
20260504041345 35 265 1.0 1.0 0.00 0.00 0.00 85 1011.0
20260504040843 35 239 0.0 0.0 0.00 0.00 0.00 83 1011.0
20260504040345 35 285 2.0 2.0 0.00 0.00 0.00 84 1011.0
20260504035843 35 247 0.0 1.0 0.00 0.00 0.00 83 1011.0
20260504035343 35 0 0.0 0.0 0.00 0.00 0.00 83 1011.0
20260504034844 35 249 2.0 2.0 0.00 0.00 0.00 83 1011.0
20260504034344 35 248 0.0 0.0 0.00 0.00 0.00 83 1011.0
20260504033844 35 254 1.0 2.0 0.00 0.00 0.00 82 1011.0
20260504033344 35 253 0.0 1.0 0.00 0.00 0.00 83 1011.0
20260504032844 35 264 0.0 0.0 0.00 0.00 0.00 82 1011.0
20260504032344 35 248 0.0 0.0 0.00 0.00 0.00 81 1011.0
20260504031843 35 0 0.0 0.0 0.00 0.00 0.00 81 1011.0
20260504031343 35 273 1.0 2.0 0.00 0.00 0.00 81 1011.0
20260504030844 35 352 0.0 0.0 0.00 0.00 0.00 80 1011.0
20260504030344 36 13 0.0 1.0 0.00 0.00 0.00 80 1011.0
20260504025844 36 333 0.0 0.0 0.00 0.00 0.00 79 1011.0
20260504025343 36 296 1.0 2.0 0.00 0.00 0.00 78 1011.0
20260504024843 36 247 0.0 1.0 0.00 0.00 0.00 78 1011.0
20260504024344 36 256 0.0 1.0 0.00 0.00 0.00 78 1011.0
20260504023844 36 246 0.0 1.0 0.00 0.00 0.00 79 1011.0
20260504023344 36 262 1.0 2.0 0.00 0.00 0.00 78 1011.0
20260504022843 37 251 0.0 1.0 0.00 0.00 0.00 79 1011.0
20260504022343 37 274 1.0 1.0 0.00 0.00 0.00 79 1011.0
20260504021843 37 316 0.0 1.0 0.00 0.00 0.00 78 1011.0
20260504021343 37 300 0.0 1.0 0.00 0.00 0.00 77 1011.0
20260504020843 37 0 0.0 0.0 0.00 0.00 0.00 76 1011.0
20260504020343 38 242 0.0 1.0 0.00 0.00 0.00 75 1011.0
20260504015843 38 0 0.0 0.0 0.00 0.00 0.00 74 1011.0
20260504015343 38 0 0.0 0.0 0.00 0.00 0.00 74 1010.0
20260504014845 38 0 0.0 0.0 0.00 0.00 0.00 75 1010.0
20260504014343 38 0 0.0 0.0 0.00 0.00 0.00 76 1010.0
20260504013844 39 0 0.0 0.0 0.00 0.00 0.00 76 1010.0
20260504013344 39 271 0.0 1.0 0.00 0.00 0.00 76 1010.0
20260504012851 39 284 2.0 2.0 0.00 0.00 0.00 75 1010.0
20260504012343 40 275 0.0 1.0 0.00 0.00 0.00 75 1010.0
20260504011844 40 0 0.0 0.0 0.00 0.00 0.00 73 1010.0
20260504011343 40 323 0.0 1.0 0.00 0.00 0.00 72 1010.0
20260504010843 41 0 0.0 0.0 0.00 0.00 0.00 69 1010.0
20260504010343 41 242 0.0 1.0 0.00 0.00 0.00 73 1010.0
20260504005844 42 244 0.0 1.0 0.00 0.00 0.00 73 1010.0
20260504005343 42 240 1.0 2.0 0.00 0.00 0.00 69 1010.0
20260504004844 42 251 2.0 2.0 0.00 0.00 0.00 69 1010.0
20260504004344 43 267 1.0 2.0 0.00 0.00 0.00 65 1010.0
20260504003843 43 254 1.0 1.0 0.00 0.00 0.00 61 1010.0
20260504003343 44 254 0.0 1.0 0.00 0.00 0.00 55 1010.0
20260504002844 44 271 0.0 1.0 0.00 0.00 0.00 56 1010.0
20260504002343 44 279 1.0 2.0 0.00 0.00 0.00 55 1009.0
20260504001843 45 275 1.0 2.0 0.00 0.00 0.00 55 1009.0
20260504001343 46 267 1.0 2.0 0.00 0.00 0.00 53 1009.0
20260504000843 46 263 1.0 2.0 0.00 0.00 0.00 53 1009.0
20260504000343 47 253 2.0 2.0 0.00 0.00 0.00 50 1009.0
20260503235843 48 266 1.0 2.0 0.00 0.00 0.00 49 1009.0
20260503235344 49 282 2.0 2.0 0.00 0.00 0.00 49 1009.0
20260503234843 50 271 0.0 2.0 0.00 0.00 0.00 47 1009.0
20260503234343 50 291 0.0 0.0 0.00 0.00 0.00 42 1009.0
20260503233843 50 268 2.0 4.0 0.00 0.00 0.00 40 1009.0
20260503233343 51 280 1.0 3.0 0.00 0.00 0.00 40 1009.0
20260503232843 51 299 1.0 3.0 0.00 0.00 0.00 40 1009.0
20260503232344 51 306 2.0 2.0 0.00 0.00 0.00 40 1009.0
20260503231843 51 264 2.0 6.0 0.00 0.00 0.00 39 1009.0
20260503231344 51 353 1.0 2.0 0.00 0.00 0.00 39 1009.0
20260503230843 51 279 3.0 5.0 0.00 0.00 0.00 39 1009.0
20260503230345 52 223 3.0 9.0 0.00 0.00 0.00 38 1009.0
20260503225845 52 272 2.0 4.0 0.00 0.00 0.00 38 1009.0
20260503225343 52 335 2.0 4.0 0.00 0.00 0.00 38 1009.0
20260503224844 52 291 2.0 4.0 0.00 0.00 0.00 38 1009.0
20260503224343 52 300 4.0 7.0 0.00 0.00 0.00 38 1009.0
20260503223844 52 306 4.0 8.0 0.00 0.00 0.00 39 1009.0
20260503223343 52 271 6.0 11.0 0.00 0.00 0.00 38 1009.0
20260503222843 52 250 7.0 10.0 0.00 0.00 0.00 39 1009.0
20260503222343 52 288 2.0 7.0 0.00 0.00 0.00 39 1009.0